Temperature
18 18 18 18 18 18 18 18 18 18 18 18 18 18 18 18 18 18 18 18 18 18 18 18 18 18 17 17 17 17 17 17 17 17 17 17 17 17 17 17 17 17 17
18 18 18 18 18 18 18 18 18 18 18 18 18 18 18 18 18 18 18 18 18 18 18 18 17 17 17 17 17 17 17 17 17 17 17 17 17 17 17 17 17 17 17
18 18 18 18 18 18 18 18 18 18 18 18 18 18 18 18 18 18 18 18 18 18 18 18 18 17 17 17 17 17 17 17 17 17 17 17 17 17 17 17 17 17 17
18 18 18 18 18 18 18 18 18 18 18 18 18 18 18 18 18 18 18 18 18 17 17 17 17 17 17 17 17 17 17 17 17 17 17 17 17 17 17 17 17 16 16
18 18 18 18 18 18 18 18 18 18 18 18 18 18 18 18 18 18 18 18 17 17 17 17 17 17 17 17 17 17 17 17 17 17 17 17 17 17 17 16 16 16 16
18 18 18 18 17 18 18 18 17 17 18 18 18 18 18 18 18 18 18 18 18 17 17 17 17 17 17 17 17 17 17 17 17 17 17 17 17 17 16 16 16 16 16
18 18 18 17 17 17 17 17 17 17 17 18 18 18 18 18 18 18 18 18 18 17 17 17 17 17 17 17 17 17 17 17 16 16 17 17 16 16 16 16 16 16 16
18 18 18 17 17 17 17 17 17 17 17 17 18 18 19 19 18 18 18 17 17 17 17 17 17 17 17 17 17 17 17 16 16 16 16 16 16 16 16 16 16 16 16
18 18 18 17 17 17 17 17 17 17 17 17 17 18 19 19 18 18 17 17 17 17 17 17 17 16 16 16 16 16 16 16 16 16 16 16 16 16 16 16 16 16 16
17 17 17 17 17 17 17 17 17 17 17 17 17 17 17 17 17 18 18 17 17 17 17 17 17 16 16 16 16 16 16 16 16 16 16 16 16 16 15 15 15 15 15
17 17 17 17 17 17 17 17 17 17 17 17 17 17 17 17 17 17 17 17 17 17 16 16 16 16 16 16 16 16 16 16 16 16 16 16 16 15 15 15 15 15 15
17 17 17 17 17 17 17 17 17 17 17 17 17 17 17 17 17 17 17 17 17 16 16 16 16 16 16 16 16 16 16 16 16 16 16 16 15 15 15 15 15 15 15
17 17 17 17 17 17 17 17 17 17 16 16 16 16 16 17 17 17 17 17 16 16 16 16 16 16 16 16 15 16 15 15 15 15 15 15 15 15 15 15 15 15 15
17 17 17 17 17 17 17 17 16 16 16 16 16 16 16 16 16 16 16 16 17 17 16 16 16 16 15 15 15 15 15 15 15 15 15 15 15 15 15 15 15 15 15
16 16 16 16 16 16 16 16 16 16 16 16 16 16 16 16 16 16 16 16 16 17 16 16 15 15 15 15 15 15 15 15 15 15 15 15 15 14 15 15 14 14 14
16 16 16 16 16 16 16 16 16 16 16 16 15 15 15 15 15 15 15 15 15 16 16 15 15 15 14 14 14 14 14 14 15 15 14 14 14 14 14 14 14 14 14
16 16 16 16 16 16 16 16 15 15 15 15 15 15 15 15 15 15 15 15 15 15 15 15 15 14 14 14 14 14 14 14 14 14 14 14 14 14 14 14 14 14 14
16 16 15 15 15 15 15 15 15 15 15 15 15 15 14 15 14 14 14 14 14 14 14 14 14 14 14 13 14 14 14 14 14 14 14 14 14 14 14 14 14 14 14
15 15 15 15 15 15 15 15 15 14 14 14 14 14 14 14 14 14 14 14 14 14 14 14 14 14 14 14 13 13 14 14 14 14 14 14 14 14 14 14 14 14 14
15 15 14 14 14 14 14 14 14 14 14 14 14 14 14 14 14 14 14 13 14 14 14 14 14 14 14 13 13 14 14 14 14 14 14 14 13 13 13 14 13 13 13
14 14 14 14 14 14 14 14 14 14 14 13 13 13 14 14 14 13 13 13 13 13 14 14 14 14 13 13 13 13 13 13 13 13 13 13 13 13 13 13 13 13 13
14 14 14 14 14 14 14 14 14 13 13 13 13 13 13 13 13 13 13 13 13 13 13 13 13 13 13 13 13 13 13 13 13 13 13 13 13 13 13 13 13 13 13
14 14 14 14 13 14 14 14 14 13 13 13 13 13 13 13 13 13 13 13 13 12 12 12 12 12 12 12 12 12 12 12 12 12 12 13 13 13 13 13 13 12 12
14 14 14 13 13 13 14 13 13 13 13 12 12 12 12 12 12 12 12 12 12 12 12 12 12 12 12 12 12 12 12 12 12 12 12 12 13 13 13 12 12 12 12
14 14 13 13 13 13 13 13 13 12 12 12 12 12 12 12 12 12 12 11 11 12 12 12 12 12 12 12 11 11 12 12 12 13 12 12 12 12 12 12 12 12 12
13 13 13 13 12 12 12 12 12 12 12 12 12 12 12 11 11 11 11 11 11 11 11 11 11 11 11 11 11 11 11 12 12 12 12 12 12 12 12 12 12 12 12
Wind_Speed
1 1 1 1 1 0 1 1 1 0 1 2 2 2 2 2 2 3 4 6 6 7 7 8 9 9 9 9 10 11 11 12 12 12 12 12 12 12 11 12 12 13 13
2 1 1 1 1 1 1 1 1 1 1 1 1 2 2 2 2 3 3 5 7 7 7 7 8 9 9 9 10 10 11 11 12 12 12 12 12 12 12 12 12 12 13
2 1 1 1 1 1 1 1 1 1 1 1 1 1 1 1 1 1 1 2 4 7 7 6 7 8 9 9 10 10 11 12 12 12 12 12 12 12 12 12 13 13 13
2 1 1 1 2 1 1 1 1 1 1 1 0 0 1 1 1 1 1 1 1 2 5 6 6 7 7 8 9 10 10 11 12 11 12 12 12 12 12 12 13 13 13
2 1 2 2 1 1 1 1 1 1 1 1 0 1 1 1 1 1 1 1 1 1 2 6 6 5 6 6 8 9 9 10 10 12 12 12 13 12 12 12 12 12 12
3 2 2 2 2 1 1 1 1 1 1 1 1 1 0 1 0 0 0 1 1 1 2 2 4 5 6 5 5 6 8 9 9 9 11 12 13 12 12 12 12 11 11
2 2 2 2 1 1 1 1 1 0 0 1 1 0 0 1 1 0 0 1 0 1 1 1 1 1 3 5 4 3 3 5 6 7 8 10 11 12 13 12 12 12 12
2 1 1 1 1 1 1 1 1 2 1 1 2 2 1 1 1 0 0 0 1 0 1 1 1 1 2 2 4 5 4 4 3 4 6 8 9 10 11 12 12 12 12
2 2 2 2 2 2 1 2 2 2 2 1 2 2 2 2 1 0 1 1 1 1 1 0 1 1 2 1 2 5 4 3 3 3 4 5 6 9 10 9 10 12 12
1 2 2 2 2 2 2 2 2 3 2 2 1 1 2 2 2 1 1 0 0 1 2 2 1 0 1 1 2 3 4 2 2 2 4 4 5 5 6 7 9 9 11
2 2 2 2 2 2 3 3 3 3 2 3 2 2 2 1 3 3 2 1 1 1 1 2 1 1 0 0 1 3 4 2 1 2 3 4 5 6 6 6 7 8 9
1 2 2 2 2 2 2 2 3 2 2 3 3 2 2 2 2 2 2 2 2 1 1 1 1 1 0 1 2 6 3 2 1 1 2 3 5 5 6 6 6 7 8
1 2 2 2 2 2 2 3 2 3 3 2 2 2 2 3 3 2 3 3 2 2 1 1 1 1 1 1 2 4 2 2 2 1 1 2 3 4 5 6 6 7 7
2 2 2 2 2 2 3 2 3 3 2 2 2 3 3 3 3 2 3 3 3 2 2 1 1 1 1 1 2 1 0 3 2 2 2 2 2 3 3 4 5 5 6
1 2 2 2 2 2 3 3 2 3 3 3 3 2 3 2 2 3 2 3 4 4 3 1 2 1 0 0 0 2 2 2 2 2 2 2 2 3 3 4 4 5 6
1 1 1 2 2 2 3 3 3 3 3 3 3 3 3 3 2 2 2 3 4 4 3 2 1 1 1 1 1 2 2 3 4 4 3 3 3 3 3 4 5 6 6
1 1 1 2 2 2 3 3 3 3 3 4 3 3 3 3 3 2 2 2 3 3 3 3 2 1 1 3 2 2 2 3 2 5 5 4 4 4 4 3 4 4 5
1 1 1 1 2 2 3 3 4 4 4 4 4 3 3 2 2 3 2 2 2 2 3 3 3 2 2 3 2 3 3 2 2 4 6 5 5 5 5 4 4 5 5
0 1 1 1 2 2 3 3 3 4 4 4 4 4 3 3 3 2 3 2 2 2 2 3 3 2 3 2 3 3 3 3 4 2 6 6 5 5 5 5 5 5 5
0 1 1 1 2 2 3 4 3 3 3 4 4 4 4 3 2 3 3 3 2 3 2 3 3 3 2 2 3 4 3 3 3 2 1 2 5 7 6 5 4 4 5
1 1 1 2 2 1 3 4 4 3 3 3 3 3 3 3 4 4 4 3 3 3 3 3 3 3 2 2 3 3 3 3 2 2 2 2 2 3 4 6 5 4 5
1 1 1 2 2 3 6 7 6 4 4 3 3 3 3 2 2 2 3 4 4 4 4 4 3 3 3 3 3 3 3 3 3 1 3 3 2 2 2 1 4 5 5
1 1 1 1 2 4 6 6 7 4 3 3 3 3 3 3 3 3 2 3 3 4 5 5 4 4 3 3 4 4 3 4 4 3 3 3 2 2 2 1 7 5 4
1 1 1 1 1 3 6 6 7 4 2 3 3 3 4 4 4 5 4 4 4 3 3 4 4 4 3 3 4 5 5 5 5 3 3 4 3 3 2 1 7 6 6
1 1 1 1 2 3 5 6 8 3 2 3 3 4 4 4 7 7 4 4 4 3 2 1 3 2 2 2 4 4 4 5 4 3 2 4 3 3 3 2 4 8 8
1 1 1 1 1 2 4 6 8 3 3 3 2 2 5 5 6 6 4 4 4 4 4 3 2 3 4 4 5 5 5 5 4 4 2 3 4 3 3 2 1 2 4
Wind_Direction
74 62 42 16 322 311 209 244 273 317 252 218 216 200 204 192 205 211 170 166 193 205 216 214 209 207 204 205 208 207 206 207 206 204 203 204 202 203 205 207 210 208 206
50 51 48 8 348 330 350 311 321 319 301 253 225 211 222 211 195 210 209 179 183 192 206 210 209 206 203 207 208 208 208 210 208 204 202 203 204 206 209 211 212 211 210
52 49 45 3 5 9 21 345 356 325 294 242 219 200 202 209 201 195 227 217 187 185 194 204 206 203 204 208 212 215 213 212 212 210 209 208 210 210 212 216 216 216 214
47 45 42 28 36 29 17 13 315 294 343 336 175 201 148 139 202 191 200 189 193 176 177 186 198 197 205 213 217 218 218 215 214 215 216 214 212 211 215 220 221 220 218
43 46 51 36 18 27 12 336 23 316 15 8 14 187 193 178 200 197 169 190 164 183 174 151 168 180 195 210 219 221 219 215 213 216 217 215 213 212 214 217 220 220 219
45 23 58 36 360 26 7 3 11 345 320 322 330 8 260 189 184 148 227 182 170 177 179 156 171 179 182 198 212 217 217 214 211 215 217 219 215 211 214 217 218 218 217
41 34 33 44 355 30 359 349 329 169 275 322 288 300 223 178 106 155 260 320 163 146 143 147 218 226 175 175 190 176 179 185 191 205 212 216 215 216 217 218 216 214 211
27 38 28 348 12 5 20 359 333 312 323 307 299 293 264 208 124 51 282 344 343 56 142 176 193 217 267 163 136 148 148 155 163 184 199 206 213 216 216 217 218 216 213
19 10 11 354 348 332 2 333 319 302 299 298 317 301 295 300 323 157 26 35 17 330 285 345 200 195 220 152 136 152 147 150 162 164 177 191 204 212 216 215 218 221 217
23 14 7 357 343 336 342 310 323 301 296 299 296 306 310 315 294 287 266 60 349 296 295 291 286 191 197 175 127 106 142 157 172 189 195 197 195 196 205 214 221 223 219
38 18 5 352 341 334 341 332 324 314 312 312 310 308 300 269 264 262 278 282 258 280 293 292 307 318 135 128 121 105 127 149 191 222 215 208 201 201 207 216 223 219 215
42 29 3 355 334 340 339 320 314 313 318 321 312 305 292 287 281 273 268 267 281 299 328 336 326 322 44 80 78 87 111 132 172 251 232 220 209 206 210 216 220 219 218
33 22 1 351 341 340 334 324 317 322 316 309 298 300 301 294 295 289 272 274 274 270 270 275 307 328 342 18 79 109 130 160 183 227 225 218 216 216 215 214 215 216 215
17 16 2 353 347 339 338 330 318 319 323 307 305 310 298 298 297 285 275 277 274 264 258 293 289 289 324 329 72 156 163 154 180 221 229 218 219 213 217 209 200 204 205
8 16 6 357 350 351 343 325 329 323 318 302 302 298 293 301 296 295 278 278 282 276 266 249 265 1 289 345 9 261 279 123 177 206 222 220 219 218 215 211 208 207 210
10 2 5 355 349 348 342 323 322 337 322 315 309 314 304 298 298 287 275 275 275 275 277 290 271 281 301 260 214 267 258 164 200 203 213 218 208 206 212 215 216 210 212
5 352 356 350 341 344 343 336 331 334 325 316 306 306 305 310 309 297 289 279 276 269 254 263 258 258 267 281 285 287 277 270 203 180 197 209 212 208 206 208 212 208 210
24 17 4 352 338 355 346 337 330 331 323 322 322 326 321 317 305 300 300 289 282 269 258 265 272 267 254 256 267 279 283 285 295 155 178 197 207 212 214 215 214 213 214
48 30 7 355 350 354 354 348 337 331 328 326 327 324 320 322 314 318 299 297 287 272 260 255 263 279 271 272 267 263 270 283 280 183 178 186 192 206 211 214 216 218 220
57 51 20 355 350 359 355 341 332 328 328 329 329 329 328 330 326 312 291 289 290 288 270 258 267 270 273 271 268 268 264 256 278 286 279 213 191 199 200 205 216 223 224
48 42 17 356 347 0 12 352 328 326 330 328 336 345 352 1 357 329 314 308 290 275 274 271 273 275 282 288 284 285 285 279 260 274 278 260 219 225 203 198 208 214 212
41 21 11 1 352 21 28 4 334 328 332 335 339 336 327 359 335 303 314 317 307 287 289 286 284 293 303 301 305 294 294 286 282 294 284 279 269 268 252 239 137 166 196
100 43 16 4 15 37 30 2 342 329 336 345 345 338 332 2 345 335 318 267 270 272 280 286 292 296 294 297 303 291 298 300 302 304 280 279 279 285 282 124 132 156 182
113 66 43 18 10 40 29 359 334 310 342 351 353 354 354 359 2 346 324 322 311 298 276 267 280 281 284 294 285 279 280 267 259 257 268 275 281 277 283 219 144 161 180
129 110 92 45 14 34 28 359 331 319 351 355 357 14 8 8 15 349 322 316 315 309 304 302 295 279 318 300 293 280 273 269 273 269 246 270 281 285 279 261 158 164 179
159 187 114 81 24 17 43 10 336 324 348 346 4 28 47 26 12 348 329 323 316 319 321 312 260 233 231 227 230 259 277 276 280 282 282 278 280 287 284 276 283 205 199
Height
1508 1508 1508 1508 1509 1509 1509 1508 1508 1507 1507 1507 1508 1508 1508 1509 1509 1509 1509 1508 1508 1508 1507 1507 1507 1508 1510 1512 1514 1516 1518 1519 1521 1522 1524 1525 1527 1528 1530 1531 1532 1533 1535
1508 1508 1508 1508 1508 1508 1509 1508 1507 1507 1506 1506 1507 1507 1508 1508 1508 1508 1508 1508 1507 1506 1506 1506 1506 1507 1508 1510 1512 1514 1515 1517 1518 1520 1521 1523 1524 1525 1527 1528 1529 1531 1532
1508 1508 1508 1508 1508 1508 1508 1507 1507 1507 1506 1506 1506 1507 1507 1507 1508 1507 1507 1507 1507 1506 1505 1505 1505 1506 1507 1509 1510 1512 1513 1514 1516 1517 1519 1520 1521 1522 1524 1525 1526 1527 1528
1509 1508 1508 1509 1508 1508 1508 1507 1507 1507 1506 1506 1506 1506 1506 1506 1507 1506 1507 1506 1506 1506 1505 1505 1505 1505 1506 1507 1508 1509 1510 1511 1513 1514 1516 1517 1518 1519 1520 1521 1522 1523 1524
1509 1509 1509 1509 1509 1509 1508 1508 1507 1507 1506 1505 1505 1505 1505 1506 1506 1506 1506 1506 1505 1505 1505 1504 1504 1504 1505 1505 1506 1506 1507 1508 1509 1511 1513 1514 1515 1516 1517 1518 1518 1519 1519
1510 1510 1510 1509 1509 1509 1508 1508 1507 1506 1506 1505 1505 1505 1505 1505 1505 1505 1505 1505 1505 1504 1504 1504 1504 1504 1504 1504 1503 1503 1503 1504 1506 1508 1509 1510 1512 1513 1514 1515 1515 1515 1514
1510 1510 1510 1509 1509 1509 1508 1508 1507 1507 1506 1506 1505 1505 1505 1505 1505 1505 1505 1505 1504 1504 1504 1503 1503 1504 1503 1502 1501 1499 1499 1500 1503 1504 1506 1507 1508 1509 1511 1511 1512 1512 1512
1510 1511 1510 1510 1509 1509 1508 1508 1507 1507 1507 1506 1506 1505 1505 1506 1504 1504 1504 1504 1503 1503 1503 1503 1502 1502 1502 1502 1500 1499 1499 1500 1501 1502 1502 1503 1504 1506 1507 1508 1509 1510 1511
1511 1510 1510 1509 1509 1509 1509 1508 1507 1507 1507 1506 1505 1506 1505 1504 1504 1504 1504 1503 1503 1502 1502 1502 1502 1501 1501 1501 1500 1500 1499 1500 1500 1500 1500 1501 1501 1502 1503 1505 1506 1507 1509
1511 1510 1510 1509 1509 1509 1508 1507 1507 1507 1506 1506 1505 1504 1504 1504 1504 1503 1504 1503 1502 1501 1501 1501 1501 1500 1500 1500 1499 1499 1499 1499 1499 1499 1499 1499 1499 1499 1500 1502 1503 1504 1505
1510 1510 1510 1509 1508 1508 1507 1506 1506 1505 1505 1505 1505 1504 1503 1503 1503 1503 1502 1502 1502 1501 1501 1500 1500 1499 1499 1499 1499 1498 1498 1497 1497 1497 1497 1497 1497 1497 1498 1499 1500 1501 1502
1511 1510 1509 1508 1508 1507 1506 1505 1505 1504 1503 1503 1503 1503 1503 1502 1502 1502 1501 1500 1501 1501 1500 1499 1499 1498 1498 1498 1497 1496 1496 1496 1496 1495 1495 1495 1495 1495 1496 1497 1497 1497 1498
1510 1509 1509 1508 1507 1506 1505 1505 1504 1503 1503 1502 1501 1501 1501 1501 1500 1500 1500 1499 1499 1499 1499 1498 1498 1497 1497 1496 1496 1495 1495 1494 1494 1494 1493 1493 1493 1493 1493 1494 1494 1494 1495
1510 1509 1508 1507 1506 1505 1505 1504 1504 1502 1501 1500 1500 1499 1499 1499 1499 1499 1499 1498 1498 1497 1497 1497 1497 1496 1496 1495 1494 1494 1493 1493 1492 1492 1492 1491 1491 1491 1491 1491 1492 1492 1493
1509 1508 1507 1506 1505 1504 1504 1503 1502 1501 1500 1500 1499 1498 1498 1498 1497 1497 1497 1497 1497 1495 1495 1495 1495 1494 1494 1494 1493 1493 1492 1491 1490 1490 1489 1489 1489 1489 1489 1489 1489 1490 1491
1508 1507 1506 1506 1505 1504 1503 1502 1501 1500 1499 1498 1497 1496 1496 1496 1495 1495 1494 1494 1494 1494 1493 1493 1493 1493 1493 1492 1491 1490 1490 1489 1488 1488 1487 1487 1487 1487 1486 1486 1487 1488 1488
1507 1506 1505 1505 1504 1503 1502 1501 1500 1499 1498 1497 1496 1495 1494 1493 1493 1493 1493 1492 1492 1492 1491 1491 1491 1491 1490 1490 1489 1489 1488 1487 1487 1486 1485 1485 1485 1484 1484 1484 1484 1484 1485
1506 1505 1505 1504 1503 1502 1501 1500 1499 1498 1497 1496 1495 1494 1493 1492 1491 1491 1490 1490 1490 1489 1490 1489 1489 1489 1488 1487 1487 1486 1486 1486 1485 1484 1483 1483 1482 1482 1482 1482 1482 1482 1482
1505 1504 1504 1503 1502 1501 1500 1499 1498 1496 1495 1494 1493 1492 1491 1491 1489 1489 1488 1488 1488 1488 1487 1487 1487 1486 1486 1485 1485 1484 1484 1483 1483 1482 1481 1480 1480 1479 1479 1479 1479 1479 1479
1505 1504 1503 1502 1501 1500 1499 1498 1497 1495 1494 1493 1492 1491 1490 1489 1488 1487 1487 1486 1486 1486 1485 1485 1485 1484 1484 1483 1482 1482 1481 1481 1480 1480 1479 1478 1478 1477 1477 1476 1476 1476 1476
1504 1503 1502 1501 1501 1500 1498 1497 1496 1495 1493 1492 1491 1489 1488 1487 1486 1485 1485 1485 1484 1484 1484 1484 1483 1482 1482 1481 1481 1480 1479 1478 1478 1478 1477 1477 1477 1476 1475 1474 1473 1473 1473
1502 1502 1501 1500 1500 1499 1497 1495 1494 1493 1492 1490 1489 1488 1487 1485 1484 1483 1483 1482 1482 1482 1482 1482 1481 1480 1479 1479 1478 1478 1477 1477 1476 1476 1475 1475 1475 1474 1473 1473 1471 1471 1471
1501 1501 1500 1499 1498 1497 1495 1494 1492 1491 1491 1489 1487 1486 1486 1484 1482 1481 1481 1480 1480 1480 1479 1479 1478 1477 1477 1476 1476 1475 1475 1474 1474 1474 1473 1473 1473 1472 1471 1470 1470 1469 1469
1500 1499 1499 1498 1497 1496 1494 1493 1491 1490 1489 1487 1486 1485 1484 1482 1481 1479 1479 1478 1478 1477 1477 1476 1475 1475 1474 1474 1473 1473 1473 1472 1471 1471 1471 1471 1470 1470 1469 1468 1467 1467 1467
1499 1498 1497 1497 1496 1494 1493 1491 1490 1489 1488 1487 1485 1484 1482 1481 1479 1478 1477 1476 1475 1475 1474 1473 1472 1472 1471 1470 1470 1470 1471 1471 1470 1470 1469 1469 1468 1467 1467 1466 1465 1465 1465
1498 1497 1496 1495 1494 1493 1492 1490 1489 1489 1487 1486 1485 1483 1481 1479 1478 1476 1475 1474 1473 1472 1472 1471 1470 1469 1468 1468 1467 1468 1468 1469 1468 1468 1467 1466 1466 1465 1465 1465 1464 1463 1463